Cumberland, WI

2:55 AM CDT on July 23, 2017 (GMT -0500)
Cumberland Municipal

Weather History for KUBE - October, 2012

Change the Weather History Date:

Friday, October 12, 2012

  Actual Average (KRPD) Record (KRPD)
Temperature  
Mean Temperature 32 °F -  
Max Temperature 46 °F 56 °F 75 °F (1996)
Min Temperature 17 °F 36 °F 19 °F (2012)
Degree Days  
Heating Degree Days 34    
Moisture  
Dew Point 18 °F    
Average Humidity 58    
Maximum Humidity 93    
Minimum Humidity 25    
Precipitation  
Precipitation 0.00 in - - ()
Sea Level Pressure  
Sea Level Pressure 30.32 in    
Wind  
Wind Speed 4 mph (South)    
Max Wind Speed 14 mph    
Max Gust Speed 17 mph    
Visibility 10 miles    
Events      
Averages and records for this station are not official NWS values.
T = Trace of Precipitation, MM = Missing Value Source: NWS Daily Summary

Daily Weather History Graph

Daily Weather History Graph

Search for Another Location

Airport or City:

Trip Planner

Search our weather history database for the weather conditions in past years. The results will help you decide how hot, cold, wet, or windy it might be!

Date:

Astronomy

Oct. 12, 2012 Rise Set
Actual Time 7:20 AM CDT 6:26 PM CDT
Civil Twilight 6:51 AM CDT 6:56 PM CDT
Nautical Twilight 6:16 AM CDT 7:30 PM CDT
Astronomical Twilight 5:42 AM CDT 8:05 PM CDT
Moon 3:56 AM CDT (10/12) 4:43 PM CDT (10/12)
Length of Visible Light 12h 05m
Length of Day
11h 05m
Waning Crescent, 10% of the Moon is Illuminated
Oct 12
Waning Crescent
Oct 15
New
Oct 21
First Quarter
Oct 29
Full
Nov 6
Last Quarter

Hourly Weather History & Observations

Time (CDT) Temp. Windchill Dew Point Humidity Pressure Visibility Wind Dir Wind Speed Gust Speed Precip Events Conditions
12:15 AM 30.2 °F 25.4 °F 21.2 °F 69% 30.36 in 10.0 mi NW 4.6 mph - N/A   Clear
12:35 AM 28.4 °F 22.2 °F 21.2 °F 74% 30.37 in 10.0 mi NW 5.8 mph - N/A   Clear
1:15 AM 28.4 °F 23.3 °F 21.2 °F 74% 30.38 in 10.0 mi WNW 4.6 mph - N/A   Clear
1:35 AM 24.8 °F 19.1 °F 19.4 °F 80% 30.38 in 10.0 mi West 4.6 mph - N/A   Clear
1:55 AM 23.0 °F 18.4 °F 17.6 °F 80% 30.38 in 10.0 mi West 3.5 mph - N/A   Clear
2:15 AM 23.0 °F - 19.4 °F 86% 30.39 in 10.0 mi Calm Calm - N/A   Clear
2:35 AM 24.8 °F - 19.4 °F 80% 30.39 in 10.0 mi Calm Calm - N/A   Clear
3:15 AM 24.8 °F 20.5 °F 19.4 °F 80% 30.39 in 10.0 mi North 3.5 mph - N/A   Clear
3:35 AM 23.0 °F - 19.4 °F 86% 30.39 in 10.0 mi Calm Calm - N/A   Clear
3:55 AM 19.4 °F - 17.6 °F 93% 30.39 in 10.0 mi Calm Calm - N/A   Clear
4:15 AM 19.4 °F - 17.6 °F 93% 30.40 in 10.0 mi Calm Calm - N/A   Clear
4:35 AM 21.2 °F - 17.6 °F 86% 30.40 in 10.0 mi Calm Calm - N/A   Clear
4:55 AM 21.2 °F - 17.6 °F 86% 30.41 in 10.0 mi Calm Calm - N/A   Clear
5:15 AM 17.6 °F - 15.8 °F 93% 30.41 in 10.0 mi Calm Calm - N/A   Clear
5:35 AM 21.2 °F - 17.6 °F 86% 30.41 in 10.0 mi Calm Calm - N/A   Clear
5:55 AM 19.4 °F - 17.6 °F 93% 30.42 in 10.0 mi Calm Calm - N/A   Clear
6:15 AM 19.4 °F - 15.8 °F 86% 30.42 in 10.0 mi Calm Calm - N/A   Clear
6:35 AM 21.2 °F - 17.6 °F 86% 30.41 in 10.0 mi Calm Calm - N/A   Clear
6:55 AM 21.2 °F - 17.6 °F 86% 30.41 in 10.0 mi Calm Calm - N/A   Clear
7:15 AM 21.2 °F - 17.6 °F 86% 30.41 in 10.0 mi Calm Calm - N/A   Clear
7:35 AM 21.2 °F - 17.6 °F 86% 30.41 in 10.0 mi Calm Calm - N/A   Clear
7:55 AM 21.2 °F - 17.6 °F 86% 30.43 in 10.0 mi Calm Calm - N/A   Clear
8:15 AM 23.0 °F - 19.4 °F 86% 30.42 in 10.0 mi Calm Calm - N/A   Clear
8:35 AM 24.8 °F - 21.2 °F 86% 30.42 in 10.0 mi Calm Calm - N/A   Clear
8:55 AM 28.4 °F - 24.8 °F 86% 30.42 in 10.0 mi Calm Calm - N/A   Clear
9:15 AM 32.0 °F - 24.8 °F 75% 30.42 in 10.0 mi Calm Calm - N/A   Clear
9:35 AM 33.8 °F 30.8 °F 24.8 °F 70% 30.42 in 10.0 mi East 3.5 mph - N/A   Clear
9:55 AM 35.6 °F 32.8 °F 26.6 °F 70% 30.42 in 10.0 mi SE 3.5 mph - N/A   Clear
10:15 AM 37.4 °F 34.9 °F 26.6 °F 65% 30.42 in 10.0 mi SSE 3.5 mph - N/A   Clear
10:35 AM 37.4 °F 32.1 °F 23.0 °F 56% 30.41 in 10.0 mi South 6.9 mph - N/A   Clear
11:15 AM 41.0 °F 36.4 °F 19.4 °F 42% 30.40 in 10.0 mi South 6.9 mph - N/A   Clear
11:35 AM 41.0 °F 39.0 °F 19.4 °F 42% 30.40 in 10.0 mi SE 3.5 mph - N/A   Clear
11:55 AM 41.0 °F 35.2 °F 19.4 °F 42% 30.39 in 10.0 mi SSE 9.2 mph - N/A   Clear
12:15 PM 42.8 °F 38.6 °F 17.6 °F 36% 30.38 in 10.0 mi SSE 6.9 mph - N/A   Clear
12:35 PM 42.8 °F 40.1 °F 19.4 °F 39% 30.37 in 10.0 mi South 4.6 mph - N/A   Clear
12:55 PM 42.8 °F 38.6 °F 19.4 °F 39% 30.37 in 10.0 mi South 6.9 mph - N/A   Clear
1:35 PM 44.6 °F 38.4 °F 17.6 °F 34% 30.34 in 10.0 mi South 12.7 mph 17.3 mph N/A   Clear
1:55 PM 44.6 °F 40.2 °F 15.8 °F 31% 30.33 in 10.0 mi South 8.1 mph 17.3 mph N/A   Clear
2:15 PM 44.6 °F 39.7 °F 15.8 °F 31% 30.33 in 10.0 mi SSW 9.2 mph - N/A   Clear
2:35 PM 46.4 °F 41.5 °F 15.8 °F 29% 30.31 in 10.0 mi SSW 10.4 mph - N/A   Clear
2:55 PM 46.4 °F 42.4 °F 15.8 °F 29% 30.30 in 10.0 mi SSE 8.1 mph - N/A   Clear
3:15 PM 46.4 °F 41.1 °F 15.8 °F 29% 30.29 in 10.0 mi South 11.5 mph - N/A   Clear
3:35 PM 46.4 °F 41.1 °F 14.0 °F 27% 30.28 in 10.0 mi South 11.5 mph - N/A   Clear
3:55 PM 46.4 °F 41.1 °F 12.2 °F 25% 30.27 in 10.0 mi South 11.5 mph - N/A   Clear
4:15 PM 46.4 °F 40.7 °F 14.0 °F 27% 30.27 in 10.0 mi South 12.7 mph - N/A   Clear
4:35 PM 46.4 °F 40.7 °F 12.2 °F 25% 30.27 in 10.0 mi South 12.7 mph 17.3 mph N/A   Clear
5:15 PM 46.4 °F 40.4 °F 12.2 °F 25% 30.25 in 10.0 mi South 13.8 mph 17.3 mph N/A   Clear
5:55 PM 44.6 °F 39.7 °F 12.2 °F 27% 30.23 in 10.0 mi South 9.2 mph - N/A   Clear
6:15 PM 42.8 °F 37.5 °F 12.2 °F 29% 30.22 in 10.0 mi South 9.2 mph - N/A   Clear
6:35 PM 41.0 °F 35.8 °F 10.4 °F 29% 30.20 in 10.0 mi South 8.1 mph - N/A   Clear
6:55 PM 37.4 °F 32.1 °F 10.4 °F 33% 30.20 in 10.0 mi South 6.9 mph - N/A   Clear
7:15 PM 37.4 °F 32.8 °F 10.4 °F 33% 30.19 in 10.0 mi SSE 5.8 mph - N/A   Clear
7:35 PM 37.4 °F 32.1 °F 12.2 °F 36% 30.18 in 10.0 mi SE 6.9 mph - N/A   Clear
7:55 PM 37.4 °F 32.8 °F 14.0 °F 38% 30.16 in 10.0 mi SE 5.8 mph - N/A   Clear
8:15 PM 37.4 °F 32.1 °F 14.0 °F 38% 30.16 in 10.0 mi SE 6.9 mph - N/A   Clear
8:35 PM 37.4 °F 32.8 °F 14.0 °F 38% 30.14 in 10.0 mi SE 5.8 mph - N/A   Clear
9:15 PM 37.4 °F 32.1 °F 15.8 °F 41% 30.13 in 10.0 mi SSE 6.9 mph - N/A   Clear
9:35 PM 35.6 °F 30.7 °F 15.8 °F 44% 30.13 in 10.0 mi SE 5.8 mph - N/A   Clear
9:55 PM 35.6 °F 29.9 °F 17.6 °F 48% 30.13 in 10.0 mi SSE 6.9 mph - N/A   Clear
10:15 PM 37.4 °F 32.1 °F 19.4 °F 48% 30.12 in 10.0 mi SSE 6.9 mph - N/A   Mostly Cloudy
10:35 PM 41.0 °F 35.8 °F 19.4 °F 42% 30.11 in 10.0 mi SSE 8.1 mph - N/A   Overcast
10:55 PM 41.0 °F 34.7 °F 19.4 °F 42% 30.10 in 10.0 mi SSE 10.4 mph - N/A   Overcast